Elizabeth City, NC

10:42 PM EDT on August 16, 2017 (GMT -0400)
Elizabeth City Cgas-Regional

Weather History for KECG - May, 2014

Change the Weather History Date:

Sunday, May 18, 2014

  Actual Average Record
Temperature  
Mean Temperature 61 °F 67 °F  
Max Temperature 71 °F 77 °F 93 °F (1947)
Min Temperature 50 °F 57 °F 40 °F (1984)
Degree Days  
Heating Degree Days 4 2  
Month to date heating degree days 15 55  
Since 1 July heating degree days 3326 3216  
Cooling Degree Days 0 4  
Month to date cooling degree days 109 52  
Year to date cooling degree days 138 94  
Growing Degree Days 10 (Base 50)    
Moisture  
Dew Point 50 °F    
Average Humidity 73    
Maximum Humidity 100    
Minimum Humidity 45    
Precipitation  
Precipitation T in 0.11 in 1.93 in (1945)
Month to date precipitation 2.14 1.95  
Year to date precipitation 14.77 15.51  
Snow  
Snow 0.00 in - 0.00 in (2002)
Month to date snowfall 0.0  
Since 1 July snowfall 10.2  
Snow Depth 0.00 in    
Sea Level Pressure  
Sea Level Pressure 30.18 in    
Wind  
Wind Speed 7 mph (NNE)    
Max Wind Speed 16 mph    
Max Gust Speed 18 mph    
Visibility 10 miles    
Events      
T = Trace of Precipitation, MM = Missing Value Source: NWS Daily Summary

Daily Weather History Graph

Daily Weather History Graph

Search for Another Location

Airport or City:

Trip Planner

Search our weather history database for the weather conditions in past years. The results will help you decide how hot, cold, wet, or windy it might be!

Date:

Astronomy

May. 18, 2014 Rise Set
Actual Time 5:56 AM EDT 8:06 PM EDT
Civil Twilight 5:27 AM EDT 8:35 PM EDT
Nautical Twilight 4:51 AM EDT 9:10 PM EDT
Astronomical Twilight 4:13 AM EDT 9:49 PM EDT
Moon 11:55 PM EDT (5/18) 9:41 AM EDT (5/18)
Length of Visible Light 15h 08m
Length of Day
14h 10m
Waning Gibbous, 81% of the Moon is Illuminated
May 18
Waning Gibbous
May 21
Last Quarter
May 28
New
Jun 5
First Quarter
Jun 13
Full

Hourly Weather History & Observations

Time (EDT) Temp. Dew Point Humidity Pressure Visibility Wind Dir Wind Speed Gust Speed Precip Events Conditions
12:54 AM 53.1 °F 50.0 °F 89% 30.17 in 10.0 mi Calm Calm - N/A   Clear
1:54 AM 52.0 °F 51.1 °F 97% 30.17 in 8.0 mi SW 3.5 mph - N/A   Clear
2:54 AM 51.1 °F 50.0 °F 96% 30.16 in 7.0 mi SSW 3.5 mph - N/A   Clear
3:54 AM 51.1 °F 50.0 °F 96% 30.17 in 10.0 mi SSW 3.5 mph - N/A   Clear
4:54 AM 51.1 °F 48.9 °F 92% 30.17 in 10.0 mi Calm Calm - N/A   Scattered Clouds
5:54 AM 51.1 °F 48.9 °F 92% 30.18 in 10.0 mi Calm Calm - N/A   Mostly Cloudy
6:54 AM 53.1 °F 52.0 °F 96% 30.19 in 10.0 mi Calm Calm - N/A   Clear
7:54 AM 59.0 °F 52.0 °F 78% 30.19 in 10.0 mi West 3.5 mph - N/A   Clear
8:54 AM 64.0 °F 50.0 °F 60% 30.19 in 10.0 mi West 4.6 mph - N/A   Partly Cloudy
9:54 AM 66.0 °F 48.9 °F 54% 30.19 in 10.0 mi West 5.8 mph - N/A   Clear
10:54 AM 68.0 °F 46.9 °F 47% 30.20 in 10.0 mi West 5.8 mph - N/A   Overcast
11:54 AM 69.1 °F 50.0 °F 51% 30.20 in 10.0 mi NNW 9.2 mph - N/A   Scattered Clouds
12:54 PM 70.0 °F 48.9 °F 47% 30.19 in 10.0 mi Variable 5.8 mph - N/A   Clear
1:54 PM 66.9 °F 52.0 °F 59% 30.17 in 10.0 mi NE 11.5 mph - N/A   Mostly Cloudy
2:54 PM 66.9 °F 52.0 °F 59% 30.17 in 10.0 mi NNE 11.5 mph - N/A   Mostly Cloudy
3:54 PM 64.9 °F 52.0 °F 63% 30.17 in 10.0 mi NNE 13.8 mph - N/A   Overcast
4:54 PM 63.0 °F 52.0 °F 67% 30.17 in 10.0 mi NE 12.7 mph - 0.00 in   Mostly Cloudy
5:54 PM 64.0 °F 52.0 °F 65% 30.18 in 10.0 mi NE 11.5 mph - N/A   Overcast
6:54 PM 63.0 °F 51.1 °F 65% 30.17 in 10.0 mi NE 11.5 mph - N/A   Mostly Cloudy
7:54 PM 62.1 °F 46.9 °F 58% 30.19 in 10.0 mi ENE 6.9 mph - N/A   Mostly Cloudy
8:54 PM 61.0 °F 46.0 °F 58% 30.20 in 10.0 mi ENE 8.1 mph - N/A   Mostly Cloudy
9:54 PM 60.1 °F 46.9 °F 62% 30.21 in 10.0 mi ENE 6.9 mph - N/A   Mostly Cloudy
10:54 PM 57.9 °F 46.9 °F 67% 30.21 in 10.0 mi NE 6.9 mph - N/A   Clear
11:54 PM 57.9 °F 48.0 °F 70% 30.22 in 10.0 mi NE 5.8 mph - N/A   Clear